Theta_e
308 308 308 310 309 309 309 309 310 309 310 310 309 310 312 311 307 305 317 319 312 314 316 318 320 321 321 322 328 333 337 341 343 346 343 337 341 340 349 344 346 349 345 352 343 343 355 366 364 367 368 373 374 376 376 377 377 377 378 376 374 374 375 371 369 369 367 367 367 367 367 366 364 364 363 363 362 361 360 358 353 352 354 351 351 351 351
307 308 308 309 308 309 309 309 309 311 311 310 310 310 312 312 311 316 317 319 314 316 317 320 323 324 323 328 332 331 337 338 346 343 343 338 338 336 344 343 346 355 356 360 356 360 364 363 367 368 370 373 373 372 372 374 375 376 376 375 374 373 369 367 367 367 367 366 365 364 363 362 362 361 361 358 358 357 355 354 353 353 353 351 351 349 348
305 307 308 308 308 309 307 309 310 311 311 311 312 311 312 313 312 318 316 314 317 320 323 322 326 325 326 330 329 327 337 339 340 341 341 345 346 342 350 345 346 358 359 360 362 364 364 367 368 370 373 373 372 372 373 373 374 375 376 372 370 367 364 365 366 365 363 361 361 359 360 359 359 357 355 354 353 353 351 351 351 351 350 348 347 346 345
303 307 307 307 308 308 307 308 308 309 309 308 310 310 312 311 310 311 314 314 315 324 325 322 324 325 325 327 326 332 335 340 337 334 339 346 347 350 354 358 360 361 361 362 364 365 367 369 370 372 373 372 371 370 372 371 372 371 370 367 365 364 363 363 362 361 359 358 358 358 357 355 353 353 352 351 350 349 347 346 348 346 346 344 344 343 341
302 306 308 307 306 305 303 304 307 309 310 311 312 313 314 313 313 310 310 314 320 322 323 321 322 322 324 326 326 325 332 342 342 339 338 350 351 352 356 360 362 363 364 366 367 368 370 372 373 372 372 370 369 369 368 369 368 366 365 363 362 361 360 360 359 359 359 357 356 354 352 351 350 350 348 347 345 344 343 343 345 343 343 341 341 341 341
303 306 307 308 303 296 298 309 312 311 309 310 309 309 312 314 313 312 314 318 323 323 321 319 319 320 325 326 338 332 341 343 342 339 343 343 348 354 357 360 363 366 366 365 368 371 372 372 371 370 371 368 368 368 366 366 364 362 361 360 359 358 358 357 358 357 355 352 349 349 349 349 348 346 345 344 343 343 344 344 342 340 339 340 340 340 339
303 307 307 302 297 298 309 312 314 314 313 313 314 313 313 314 315 315 318 318 320 321 322 321 324 328 329 328 328 328 334 342 343 345 343 344 340 350 358 361 362 364 365 368 370 369 369 366 367 367 366 365 364 363 363 361 361 360 359 357 356 356 355 354 353 351 350 349 347 347 347 346 344 343 342 342 341 341 341 339 339 339 339 339 337 336 335
308 305 303 296 299 309 311 312 314 315 314 314 312 310 313 315 316 318 320 321 322 325 323 323 327 330 330 331 335 339 337 341 341 337 337 343 344 352 359 359 361 364 367 366 364 364 365 364 362 362 360 360 360 360 360 359 358 358 356 354 353 352 350 349 349 348 347 345 345 344 344 343 341 340 340 339 338 339 341 341 340 340 338 339 335 332 332
303 305 303 302 309 307 309 310 312 313 314 312 311 307 311 316 317 319 321 322 322 323 324 324 326 332 334 333 335 340 338 337 340 340 343 347 343 350 362 364 365 367 366 363 362 362 361 360 359 358 358 358 357 356 355 354 355 354 351 349 348 347 346 346 346 346 346 344 342 342 341 340 338 338 338 337 338 340 339 340 337 334 333 332 334 331 330
310 303 302 303 302 299 305 313 317 317 317 318 318 314 311 317 317 319 324 322 321 324 324 325 330 333 334 330 333 339 337 337 342 346 349 349 353 361 362 363 363 363 361 360 359 358 356 356 356 358 358 358 356 354 351 351 350 348 347 345 345 344 343 344 344 345 344 343 341 339 339 337 336 337 338 338 338 339 337 334 331 332 333 331 331 331 329
309 306 303 303 300 304 314 314 318 323 319 318 322 313 308 320 320 320 323 321 326 325 325 325 329 327 326 327 331 339 336 337 345 352 356 358 358 359 359 359 358 357 358 358 357 357 355 353 354 356 356 354 351 350 350 348 347 345 343 343 344 343 343 343 343 343 343 342 339 338 336 336 336 336 336 336 336 337 334 333 332 331 329 328 329 329 329
308 306 303 304 307 309 315 317 320 320 321 321 316 303 304 317 321 322 323 322 323 327 329 332 331 328 323 324 332 338 339 345 351 353 354 354 355 355 355 355 355 355 358 357 354 353 352 353 354 353 352 350 349 347 346 346 344 343 343 343 343 343 342 342 342 341 340 339 338 337 336 336 337 337 337 336 336 335 334 331 329 330 330 328 328 327 329
308 308 305 307 312 319 320 318 320 322 321 318 306 301 313 324 326 326 325 325 327 332 336 337 331 336 338 340 341 341 345 348 349 352 352 352 353 351 352 352 354 354 353 353 351 351 353 353 352 351 350 348 346 346 345 343 341 341 342 343 343 342 341 339 339 339 339 338 337 337 337 336 336 336 337 335 335 333 334 334 333 332 329 329 328 328 329
305 307 304 304 310 319 319 321 322 323 315 305 306 321 327 328 327 331 326 329 336 341 339 339 340 342 343 343 342 347 348 348 349 349 350 350 350 352 352 352 351 350 350 350 351 351 351 351 349 348 347 345 344 343 342 340 341 342 343 341 340 340 339 338 337 337 337 338 336 335 337 337 336 334 334 335 332 334 332 332 331 329 329 329 328 327 328
309 308 306 303 296 316 322 320 322 324 313 317 326 331 331 330 327 331 334 336 339 339 341 341 347 344 342 342 344 346 349 348 348 348 348 348 348 348 349 349 350 349 347 346 345 346 346 346 346 346 344 342 341 341 339 339 340 341 340 339 339 338 337 335 335 336 337 336 334 334 334 335 334 332 334 334 334 334 331 331 330 328 328 328 327 326 326
308 306 303 303 315 321 323 322 315 324 329 330 330 326 325 327 327 327 333 337 340 341 340 341 343 345 345 346 348 349 349 349 349 349 349 349 349 348 348 347 346 345 343 343 343 345 343 345 345 344 343 341 340 339 338 341 340 340 340 338 337 334 334 334 335 335 335 335 334 335 334 334 334 332 331 331 332 332 332 332 331 328 328 326 325 324 322
311 309 313 320 324 323 322 327 325 327 327 330 328 327 326 326 329 332 331 334 339 337 340 340 342 343 345 347 349 347 347 347 347 347 347 347 346 345 344 342 343 343 341 341 341 342 342 343 344 345 344 341 340 338 340 342 340 339 339 337 334 333 332 333 333 333 335 335 335 334 333 332 332 331 329 331 330 329 328 327 328 330 325 323 323 321 321
319 320 319 321 322 321 321 322 324 324 325 328 328 327 328 331 334 332 330 332 338 339 341 339 341 344 345 346 347 347 347 346 346 347 345 345 345 343 343 343 343 343 342 342 342 341 341 342 342 344 342 340 338 338 340 341 341 341 338 336 334 333 333 334 333 334 333 333 333 331 331 332 331 331 330 329 328 327 326 325 325 323 322 321 319 318 319
313 306 326 322 320 320 324 325 326 329 331 330 330 329 334 334 334 334 334 335 338 343 347 344 347 348 348 347 348 348 347 345 344 343 341 341 341 342 342 342 341 340 339 338 338 338 337 339 339 339 338 338 339 340 340 338 337 340 337 334 333 332 332 332 332 333 332 329 329 330 330 328 328 326 327 325 324 324 323 322 322 320 319 320 319 317 317
313 313 321 324 323 324 325 325 326 328 328 331 332 334 336 339 338 333 335 333 334 344 343 344 345 344 345 345 344 343 343 342 342 341 340 341 341 341 341 342 342 341 339 337 336 336 336 338 339 337 336 336 337 338 336 337 336 336 335 333 331 331 332 333 334 334 331 330 328 326 325 325 322 321 319 319 318 317 317 317 319 318 318 319 319 319 316
316 318 321 322 323 323 323 325 327 327 328 329 330 333 335 334 333 334 334 332 334 344 341 343 341 343 345 345 344 342 342 341 341 341 343 343 342 342 343 343 343 341 340 339 338 337 336 337 336 336 336 337 338 336 335 336 337 334 334 334 333 332 332 334 333 334 333 333 332 328 325 324 321 322 321 318 320 318 318 317 316 317 320 317 318 320 318
311 312 317 319 314 315 320 323 325 327 328 328 328 334 335 336 334 335 333 332 333 336 344 338 337 339 346 345 345 342 341 341 343 343 341 340 340 340 341 341 340 339 339 337 336 336 336 338 338 337 337 338 339 335 335 335 336 335 335 333 332 331 330 332 332 328 327 326 325 326 324 321 320 319 318 311 317 319 316 317 310 304 309 314 313 316 320
310 317 320 325 324 324 324 325 328 328 330 328 328 332 333 333 334 335 336 334 335 334 343 343 339 337 339 342 342 340 340 342 342 341 341 340 341 340 340 339 338 338 337 336 336 336 336 337 337 337 337 337 338 335 337 337 336 336 335 333 333 331 332 332 330 326 323 323 323 323 321 319 319 317 316 322 303 304 315 317 306 294 295 300 305 310 315
320 322 321 324 323 322 327 327 327 328 331 331 328 329 334 333 336 336 336 337 337 337 339 342 341 342 343 342 341 340 341 341 342 342 343 343 342 341 341 339 338 338 337 336 336 335 336 336 336 336 335 335 337 335 336 337 337 336 336 334 332 331 331 332 330 329 325 324 322 321 321 321 321 319 315 318 317 307 301 306 306 300 298 297 298 302 306
321 324 327 326 326 328 329 331 329 328 330 330 329 329 332 335 334 334 334 337 338 336 335 338 344 346 344 342 342 342 341 341 342 342 342 341 340 340 340 339 338 337 336 336 335 335 335 334 334 333 333 333 334 333 336 336 337 336 335 334 332 331 331 331 331 329 326 325 324 323 321 322 320 319 317 315 314 314 319 302 298 299 299 299 298 298 301
326 328 328 329 330 329 330 329 327 328 330 333 333 334 335 343 343 342 337 335 338 338 336 337 339 346 346 345 344 343 342 342 341 342 341 340 339 339 338 338 338 338 336 335 335 334 333 333 332 332 331 332 333 335 333 336 336 336 335 334 332 331 330 331 332 332 329 329 328 328 328 326 322 322 321 320 318 319 318 317 317 313 303 299 298 298 300
326 327 326 328 327 328 329 325 325 331 333 336 336 337 335 337 345 343 341 339 337 337 337 336 340 342 347 348 345 343 341 341 342 341 340 339 339 339 339 339 338 337 335 334 334 334 333 333 332 331 330 331 334 335 334 334 335 336 335 334 332 330 330 330 332 332 330 329 328 329 331 332 332 328 327 326 327 325 323 323 323 325 320 316 306 299 313
325 326 325 327 325 327 326 327 333 332 334 333 335 335 337 340 342 340 340 339 338 336 333 333 334 334 341 345 341 339 340 340 340 339 339 338 339 339 339 338 336 336 335 334 333 333 332 331 330 329 329 332 335 335 334 334 336 335 334 332 329 329 329 329 330 331 331 333 333 334 331 329 331 325 324 324 320 321 320 324 322 322 321 321 321 311 305
324 324 326 328 330 331 329 330 334 334 333 334 336 336 335 340 340 339 338 336 335 334 333 334 336 335 336 338 338 339 340 340 339 339 340 341 340 339 339 338 337 335 334 333 331 332 332 331 329 328 329 333 334 336 336 336 335 334 332 329 328 327 327 329 331 331 331 331 332 333 331 328 327 329 326 326 322 321 323 323 322 320 322 325 322 320 319
322 324 323 325 326 326 326 324 326 328 330 334 335 335 337 337 337 339 338 336 335 333 333 335 336 336 337 341 339 341 341 340 340 341 340 339 339 339 338 337 335 334 333 332 333 333 332 330 329 329 329 332 334 336 336 337 335 334 332 331 329 328 328 330 332 333 331 331 327 329 330 326 333 328 326 326 324 321 320 323 322 321 321 320 315 318 318
323 324 323 324 324 325 324 326 329 330 332 336 337 335 335 337 336 337 336 333 334 335 334 337 337 336 335 338 339 343 342 341 340 339 338 338 338 337 336 336 332 331 331 332 333 333 333 332 331 330 331 333 335 337 337 335 333 332 331 331 330 331 331 331 331 329 329 327 325 325 325 326 323 324 322 321 320 321 323 321 322 318 320 318 317 316 319
320 320 320 321 321 320 322 327 326 328 332 333 334 334 334 336 335 334 336 336 335 335 337 338 335 333 335 338 340 340 338 338 338 338 337 337 336 336 336 336 335 335 334 334 334 333 332 331 330 332 334 334 334 336 337 334 333 332 330 329 328 327 328 329 326 326 327 326 325 325 324 324 322 323 322 322 323 323 321 320 319 321 317 317 317 316 322
318 317 319 321 322 322 322 326 325 330 331 332 336 339 337 336 335 335 336 337 338 340 340 340 339 337 336 338 339 338 337 336 337 336 336 335 336 337 338 336 336 335 334 335 334 333 331 330 330 332 333 334 334 334 333 333 333 331 330 329 328 327 328 328 327 326 325 324 325 325 325 324 323 324 323 325 324 322 319 317 319 318 318 317 318 320 319
319 320 321 324 325 325 323 323 326 330 332 333 336 338 337 338 337 336 337 338 337 337 338 340 340 339 338 340 338 338 337 336 335 335 336 336 337 338 339 337 336 335 335 334 332 331 332 332 331 330 332 333 334 333 334 334 333 332 332 329 327 326 325 326 326 324 323 325 325 326 326 325 325 322 321 322 321 320 320 320 319 318 316 315 319 321 313
321 323 324 324 326 328 328 331 331 330 330 331 332 336 340 339 339 337 337 337 337 337 339 340 339 340 340 339 339 338 338 337 337 337 338 339 339 339 337 336 335 334 333 333 333 332 333 332 331 331 332 333 333 332 333 333 333 331 331 330 328 326 326 326 324 324 324 325 328 325 324 322 321 320 322 324 321 323 320 323 319 317 317 317 317 322 320
320 322 324 326 327 327 327 328 330 331 332 332 332 336 338 340 339 335 336 337 338 340 339 337 337 339 336 336 337 337 338 339 339 339 338 338 339 338 336 334 332 331 331 331 332 332 332 331 332 331 330 331 332 333 334 333 332 332 331 328 326 326 326 325 326 327 328 326 324 326 323 323 323 323 321 322 322 323 320 319 317 317 316 316 315 316 317
322 324 326 325 327 328 328 330 332 332 334 334 334 334 338 341 341 338 339 338 337 336 336 336 335 334 335 336 336 337 338 339 337 336 336 338 337 336 334 333 332 330 330 327 329 330 330 331 333 333 331 331 332 333 335 334 332 331 330 327 326 325 324 324 326 327 326 328 326 325 324 321 320 321 323 323 319 319 316 315 319 319 317 317 318 320 320
324 326 326 327 327 327 330 331 331 334 335 336 337 336 340 343 340 339 339 337 337 336 336 337 335 336 337 336 335 336 337 337 336 337 338 338 337 334 332 331 330 329 327 328 331 330 330 331 333 332 332 333 333 333 334 335 333 329 328 326 325 325 324 324 324 324 324 324 326 324 322 319 318 316 316 317 319 317 315 317 320 319 319 321 322 321 323
325 326 326 327 328 328 329 331 332 334 332 333 335 337 342 343 340 339 337 336 336 337 337 337 338 337 337 337 336 338 337 337 338 338 337 335 335 332 330 331 331 333 333 333 332 331 332 330 331 330 332 333 334 334 333 334 334 330 328 328 328 326 325 324 323 324 324 327 323 322 321 317 318 315 315 316 316 320 320 321 320 322 320 321 321 320 322
325 326 326 327 326 329 330 330 331 332 332 334 335 337 340 344 339 338 337 336 336 335 337 338 338 336 336 338 339 337 339 338 338 336 335 333 332 331 331 332 334 335 334 332 332 331 330 329 330 330 332 333 333 332 332 332 333 330 329 327 325 325 325 325 324 322 323 323 320 320 318 319 317 315 315 316 317 317 318 318 318 319 319 321 323 322 321
326 326 327 329 332 334 335 334 332 333 334 335 335 339 344 345 344 339 337 336 336 336 337 338 337 337 338 340 340 340 339 338 336 336 335 333 331 330 327 327 333 334 332 331 331 329 328 328 328 329 331 333 333 332 330 332 331 330 327 326 325 324 324 324 323 323 321 318 319 316 317 315 315 315 316 317 316 316 317 316 317 320 321 320 321 323 324
330 331 331 331 331 333 334 336 337 336 335 337 338 339 343 344 341 339 338 338 337 336 337 338 337 335 338 341 341 340 339 337 337 336 335 333 331 329 328 329 335 333 332 332 329 328 328 328 329 330 330 331 332 332 331 330 329 330 326 325 325 325 324 323 324 323 322 321 319 318 319 316 315 315 316 316 315 316 318 317 319 321 321 323 324 325 323
329 329 330 330 331 332 333 332 331 335 334 336 338 338 341 340 339 338 337 336 338 338 337 337 337 338 339 340 340 338 338 337 336 336 335 335 336 335 334 333 336 334 330 330 328 327 326 328 329 328 331 331 331 330 332 328 328 330 327 325 326 325 325 324 324 322 321 322 320 320 321 318 316 315 315 315 315 317 320 321 321 323 321 323 323 323 324
326 326 327 328 329 331 333 331 331 332 335 336 336 338 333 331 332 333 334 335 335 335 334 335 335 337 337 337 339 338 337 336 335 334 332 332 332 337 340 336 335 332 329 328 327 326 327 329 329 330 333 332 332 330 330 328 329 329 329 325 324 325 324 324 323 322 321 322 320 321 321 319 316 316 318 315 318 320 321 320 319 321 321 324 324 324 321
325 326 326 327 328 329 330 331 330 330 333 334 334 334 334 329 329 330 332 332 331 331 331 332 332 333 334 334 336 339 338 338 336 334 331 329 327 332 337 336 332 330 330 330 327 326 328 329 329 329 330 331 328 330 328 329 329 330 327 324 324 325 324 323 323 322 322 322 321 322 322 320 318 319 319 318 321 320 319 319 321 321 322 321 321 321 323
324 325 326 325 326 329 330 331 333 333 332 330 334 336 337 333 331 331 331 331 331 331 331 331 331 332 333 336 338 340 340 338 338 337 336 334 332 336 336 333 332 331 330 329 327 326 329 332 328 327 329 329 329 330 328 329 330 328 326 325 326 324 324 322 323 323 322 322 322 323 322 320 320 320 321 319 320 321 321 321 322 324 325 322 322 323 325
324 325 327 327 329 331 332 332 333 332 330 329 327 330 336 337 333 332 330 331 333 333 333 333 332 331 331 334 338 338 336 336 337 336 337 337 342 338 335 334 332 330 329 329 327 328 330 331 326 326 327 327 333 328 328 330 330 328 327 327 325 324 323 323 325 324 323 323 323 325 326 324 322 323 323 324 323 322 323 322 321 322 323 322 324 326 324
326 327 328 329 329 329 330 330 330 329 330 329 329 330 332 335 335 334 334 333 334 334 335 335 335 335 333 333 335 339 339 336 331 332 336 336 339 337 334 332 331 329 329 332 331 335 330 327 326 325 326 329 332 327 328 329 329 328 327 326 325 324 324 323 324 323 322 322 324 326 323 322 323 323 323 322 323 322 322 323 321 321 322 323 323 322 324
326 327 327 327 328 329 329 328 328 329 331 331 330 331 331 331 332 334 334 333 333 332 332 333 333 334 336 335 336 336 339 341 337 332 336 337 337 336 335 333 329 327 328 329 329 334 327 325 324 325 325 333 328 328 328 329 329 328 326 325 323 324 325 324 324 323 323 322 322 322 323 321 320 323 323 322 322 322 322 324 324 322 320 322 323 324 324
324 325 325 324 325 325 326 326 327 329 331 332 331 333 332 332 331 331 332 333 332 332 333 331 332 335 336 337 338 339 339 338 339 338 338 339 337 337 333 331 329 328 330 330 332 331 331 324 325 326 329 330 328 328 329 330 329 327 326 325 324 325 325 325 323 326 326 326 322 321 322 321 321 323 324 323 322 322 322 322 324 325 324 324 323 325 325
322 322 322 324 323 325 326 326 327 329 330 331 332 332 333 331 330 329 330 330 332 331 329 328 327 329 332 337 337 338 341 341 338 340 338 337 337 335 333 331 329 327 330 331 331 329 329 329 328 330 330 328 327 328 329 330 328 326 326 323 325 324 323 324 322 323 324 323 322 320 322 321 323 325 324 323 324 323 323 323 324 325 324 323 323 324 324
320 321 321 321 320 321 323 324 326 327 327 328 329 330 330 331 331 330 329 331 331 331 331 328 326 329 331 334 335 333 336 339 338 336 339 337 335 333 331 330 327 327 331 332 331 331 329 329 330 331 331 328 328 328 331 333 328 325 325 326 328 324 326 324 325 323 324 324 323 322 321 322 322 323 323 323 323 323 325 326 325 325 324 324 325 326 326
Wind_Speed
13 16 19 18 18 17 10 9 7 13 15 13 12 12 13 11 8 5 10 7 9 7 6 6 3 6 6 6 11 8 9 11 3 8 16 16 11 9 6 9 8 8 10 8 12 11 9 9 12 9 7 8 8 8 7 7 6 6 6 6 5 5 6 7 7 6 6 6 5 5 4 4 4 5 5 4 4 3 4 4 5 6 5 6 6 5 5
13 14 17 17 18 14 15 16 11 11 12 14 15 14 11 9 9 7 13 8 9 10 7 8 7 7 7 8 4 8 5 7 12 10 10 17 13 10 9 9 7 7 11 11 15 14 11 12 11 10 8 8 8 8 8 7 7 7 6 6 6 7 7 7 6 6 6 5 6 6 6 4 4 4 4 4 5 6 6 5 5 5 5 6 5 5 4
13 14 15 16 18 15 14 4 8 13 9 10 10 10 7 6 9 15 15 12 5 5 1 6 11 6 3 3 6 7 7 3 9 11 4 12 17 19 13 14 14 10 12 11 12 12 12 11 12 10 9 9 9 9 8 9 8 7 7 8 7 8 7 7 6 6 6 6 6 6 6 5 4 6 7 6 6 6 5 5 4 4 4 4 4 4 4
11 12 14 15 17 16 13 12 9 10 12 11 10 13 13 11 10 12 12 8 6 5 7 9 8 7 3 2 2 2 4 7 12 10 17 10 14 15 13 13 13 13 12 13 12 12 12 12 12 11 10 10 10 10 9 9 8 8 8 8 8 8 7 7 7 7 7 6 5 5 4 6 8 7 5 6 5 5 5 5 5 4 4 4 3 5 5
10 12 13 14 16 15 15 15 14 14 12 10 9 8 6 10 8 10 11 11 12 12 12 12 9 7 8 5 2 3 4 8 12 15 14 11 13 17 15 14 14 14 13 13 13 13 12 11 11 12 12 11 10 10 10 8 8 9 9 9 8 8 7 7 8 6 6 5 6 7 7 6 5 5 6 5 5 5 5 5 4 4 4 5 7 6 7
8 11 15 14 12 14 12 9 15 16 15 12 13 11 12 11 12 8 6 8 5 10 13 15 12 14 13 8 3 2 2 2 3 6 5 7 1 10 16 15 15 13 12 11 11 12 12 13 13 12 11 11 10 9 10 9 10 9 9 9 8 8 8 7 5 5 8 9 7 6 6 6 6 5 6 5 6 5 4 4 4 5 7 7 7 6 6
8 8 10 11 13 10 6 11 11 11 12 11 10 11 13 12 4 5 11 6 7 10 7 6 6 4 12 11 7 2 3 4 4 5 5 4 3 9 12 16 15 13 13 13 14 14 12 13 13 12 11 11 11 11 10 11 10 10 9 9 9 8 7 7 8 8 7 6 6 6 6 6 5 5 5 5 5 4 5 6 6 6 6 6 5 8 8
8 8 7 10 7 8 15 14 11 10 11 13 16 18 16 7 3 3 9 13 11 4 6 5 8 6 7 8 5 5 4 9 9 7 5 11 12 12 8 14 15 15 16 16 15 13 12 13 13 14 14 13 12 11 11 11 10 10 9 10 9 9 9 8 7 7 7 6 6 6 6 6 6 5 5 6 6 5 5 5 5 4 3 5 8 8 8
10 7 8 10 7 11 10 6 7 5 5 8 8 4 3 4 6 5 14 9 11 9 5 11 10 9 8 5 3 3 8 11 15 16 14 14 11 11 5 10 13 15 16 18 17 15 14 14 14 14 14 14 14 14 13 12 10 10 10 10 10 9 9 8 8 7 7 7 7 6 5 6 6 6 6 6 5 4 4 4 5 7 8 8 6 7 8
6 10 9 8 9 9 3 8 12 2 6 6 9 1 1 6 8 5 16 10 9 8 5 7 7 8 7 6 4 4 5 11 14 17 17 17 15 11 12 11 13 14 14 16 17 17 19 18 16 14 14 12 12 12 12 11 11 11 10 11 10 9 9 8 8 7 7 6 6 6 6 6 6 6 5 3 3 3 5 7 8 7 6 7 7 7 8
8 9 9 3 7 2 8 11 23 16 5 3 8 2 6 5 8 6 12 13 13 6 6 7 7 5 5 4 6 6 9 11 14 18 19 19 18 18 16 14 14 15 14 15 17 18 19 20 17 16 15 15 14 12 11 11 11 11 11 10 9 9 9 8 8 7 6 6 6 7 6 6 5 5 4 3 3 6 6 5 6 6 6 6 6 6 6
9 7 8 8 1 2 11 13 11 17 16 3 6 6 8 5 2 4 5 8 9 10 9 7 6 6 6 7 7 13 15 15 15 16 19 19 19 18 19 17 14 14 15 15 16 16 17 17 17 16 15 14 13 12 12 11 11 11 10 10 9 8 8 8 7 7 6 6 7 7 6 5 4 3 3 4 6 4 5 4 4 4 5 5 6 6 5
7 7 7 7 3 2 3 6 10 8 7 8 2 6 3 8 12 12 10 9 4 4 8 7 6 6 3 6 9 13 15 16 16 15 16 17 17 19 19 20 19 15 14 14 15 16 14 14 14 14 13 13 12 11 12 11 12 11 10 9 8 8 7 8 7 7 7 7 6 6 5 5 4 4 4 4 4 5 4 3 4 5 6 5 5 5 5
10 7 7 6 2 5 7 4 9 8 2 4 4 5 5 5 7 7 5 6 9 8 3 3 4 5 6 10 11 11 14 15 16 17 18 20 18 17 18 17 16 17 15 15 16 15 12 12 12 12 13 13 12 12 11 11 11 10 9 9 8 8 8 7 8 7 7 6 6 5 4 4 4 4 5 4 3 4 2 3 5 6 4 5 5 5 5
8 8 6 5 3 5 13 9 5 4 5 5 7 4 9 12 4 6 6 7 5 7 7 1 5 9 12 14 15 16 15 16 19 21 20 22 23 21 18 16 14 16 16 16 15 14 13 12 11 11 14 15 12 11 12 11 9 9 9 9 9 8 8 8 7 7 6 7 6 5 4 4 4 4 5 5 4 2 3 5 6 5 5 6 6 6 6
9 7 8 3 2 1 9 13 5 5 8 7 7 8 6 10 7 4 3 5 2 5 6 3 3 9 12 13 14 15 15 15 14 17 19 19 20 20 20 21 20 18 16 15 15 13 12 12 12 11 11 12 11 12 12 9 9 8 8 8 8 9 8 8 7 7 6 6 5 5 5 4 5 6 5 4 4 5 6 4 4 4 6 7 6 6 6
6 2 3 4 4 4 3 8 4 3 7 10 9 5 7 9 10 10 3 1 3 2 6 2 6 9 11 13 14 14 14 15 15 15 16 19 20 21 22 20 18 18 18 17 16 16 14 15 13 11 9 11 13 13 10 8 8 7 7 7 8 8 8 7 7 6 5 5 5 6 5 4 5 4 4 4 5 5 6 7 7 5 7 7 6 7 6
4 7 7 7 4 1 6 8 8 7 5 2 3 8 5 5 6 11 10 4 3 5 5 6 6 8 12 15 15 15 15 15 15 14 14 13 14 16 18 18 18 19 20 19 18 17 15 15 15 11 10 11 12 10 8 7 7 6 7 7 7 7 6 6 7 6 5 6 8 7 5 5 5 4 5 5 5 5 6 6 6 7 7 5 5 6 5
4 0 8 7 2 1 3 5 5 3 3 5 4 3 4 2 3 8 13 12 7 4 6 9 7 9 11 13 14 14 14 15 16 16 15 15 14 13 13 14 16 18 20 19 19 18 16 14 14 13 12 10 10 8 7 6 7 6 7 7 7 7 7 7 7 6 6 5 7 6 5 6 6 6 6 6 7 7 6 5 5 6 6 5 5 4 5
6 4 6 7 8 9 5 2 2 3 2 3 4 3 5 2 4 4 8 12 11 8 5 1 5 13 15 16 16 16 15 15 15 15 15 14 14 14 14 11 10 9 14 18 19 18 16 14 12 13 12 12 11 9 8 8 7 7 7 7 7 7 7 5 5 5 6 10 10 6 7 6 6 7 7 7 7 7 6 6 6 6 5 5 5 5 5
4 6 2 7 10 7 6 5 6 4 2 1 3 7 10 7 7 10 11 13 6 9 3 6 7 14 16 16 17 17 16 16 15 15 15 14 14 13 13 13 11 10 12 15 16 15 12 10 11 10 10 11 10 10 8 8 7 7 7 8 7 8 5 4 4 4 4 4 6 8 8 8 8 7 6 6 7 6 6 5 4 4 4 4 5 5 5
6 4 2 2 5 4 5 7 2 5 2 3 2 5 4 4 5 7 9 12 19 18 4 10 3 11 2 12 15 16 16 15 15 16 16 15 16 16 15 15 16 14 14 15 15 13 11 9 8 8 9 9 8 9 8 7 7 6 7 8 8 6 5 5 4 6 6 7 7 7 7 7 6 6 10 10 7 5 4 4 6 5 5 4 4 5 4
7 3 5 2 4 6 6 7 10 7 5 6 3 4 2 2 2 5 6 9 13 19 11 9 13 15 15 14 16 17 15 15 15 16 17 16 15 15 16 17 16 15 14 15 14 13 10 9 10 9 7 8 8 8 6 6 6 6 6 6 6 6 5 4 6 6 6 6 6 6 7 7 6 6 5 6 9 10 7 5 2 2 3 3 5 5 4
7 4 4 8 7 5 4 4 10 8 5 6 8 1 4 6 5 5 5 3 5 12 19 11 15 17 15 16 20 20 20 20 18 16 16 16 17 17 15 15 15 15 15 14 14 14 11 10 10 9 9 9 8 8 6 5 7 6 6 6 6 5 4 4 7 8 6 7 7 7 7 6 6 6 5 5 3 3 4 3 4 3 4 6 8 7 5
4 8 6 3 4 5 5 5 7 10 7 6 5 7 7 4 3 8 6 8 7 4 12 19 11 11 14 17 17 19 20 20 18 18 17 16 17 16 16 17 16 15 13 12 12 11 11 11 11 10 10 8 7 7 6 5 6 6 6 6 6 6 4 5 5 8 8 7 7 7 7 7 7 6 6 6 6 4 1 2 3 3 6 7 8 9 8
6 3 3 3 2 5 4 4 10 10 8 6 7 7 6 4 6 9 11 10 9 6 4 11 17 12 9 10 15 18 19 20 19 17 17 17 17 16 16 16 16 14 13 13 12 11 12 12 11 10 9 8 7 6 6 5 5 6 6 7 7 6 5 4 3 5 7 7 6 7 7 6 7 7 7 6 6 6 5 3 2 3 6 9 9 9 9
5 4 4 7 4 5 7 6 3 2 4 6 5 6 4 4 5 6 6 5 6 9 7 8 11 16 11 7 12 15 16 18 16 15 16 17 16 14 14 14 15 15 15 13 12 12 12 10 9 9 8 7 6 6 6 7 6 6 7 7 6 8 10 7 4 5 6 6 6 6 6 5 3 2 4 3 3 5 5 5 5 4 3 2 5 7 4
4 4 3 8 6 6 4 3 3 3 3 5 5 5 5 0 2 5 6 7 6 6 9 9 8 15 13 3 11 14 15 16 16 17 16 15 14 13 13 15 15 14 13 13 13 12 11 10 10 9 8 7 6 6 7 7 7 7 7 7 7 6 5 7 6 5 4 4 4 4 5 4 3 3 3 3 3 3 2 2 3 3 4 4 3 4 7
4 3 4 8 11 8 6 1 7 5 2 3 3 3 4 1 2 1 5 10 7 6 7 6 8 5 10 2 1 10 13 16 17 18 15 14 13 14 14 14 14 14 13 13 13 12 11 11 11 9 8 6 6 6 7 8 8 7 8 8 7 7 6 5 5 4 4 4 4 4 3 3 2 3 3 3 3 3 2 3 3 3 2 3 4 2 5
7 8 6 6 8 9 6 4 1 3 4 4 6 4 2 3 1 3 8 11 7 6 4 6 5 5 5 2 5 5 11 15 16 15 15 14 13 13 13 12 13 11 11 11 10 10 11 10 10 10 9 8 7 7 9 7 8 8 8 8 7 6 6 6 4 4 5 5 4 7 4 2 2 2 3 3 3 4 3 3 2 3 3 3 4 3 3
8 7 5 4 7 7 6 5 4 2 4 3 5 6 2 2 6 10 9 7 6 5 4 3 7 4 1 5 3 5 9 12 14 15 14 14 13 13 12 11 11 10 10 10 9 9 9 9 9 8 8 8 7 7 7 7 7 8 7 6 7 5 4 3 4 5 5 4 5 4 4 4 4 3 3 3 4 4 3 3 3 3 3 3 3 3 2
8 8 10 9 9 10 8 6 4 3 4 4 3 3 4 3 7 8 7 7 4 5 6 6 8 7 4 4 3 8 10 10 12 12 13 12 12 12 11 10 11 11 11 10 9 9 9 8 8 8 7 7 7 7 6 6 6 6 6 7 7 6 5 6 5 4 5 5 5 5 4 4 3 3 2 3 2 3 3 3 3 3 3 3 3 2 2
5 8 9 9 8 8 6 5 6 6 5 4 2 1 2 4 6 7 6 5 4 5 6 4 8 7 7 9 9 9 10 10 10 11 11 12 11 11 11 11 11 12 11 10 10 10 9 9 9 8 8 7 7 8 8 7 6 7 7 7 6 6 7 7 7 7 6 7 6 5 4 3 4 2 2 1 2 3 3 3 3 3 4 3 3 1 2
7 8 8 8 7 6 9 8 7 9 6 2 3 4 3 2 6 7 5 5 6 5 5 6 8 12 10 10 12 11 13 13 12 11 12 13 13 12 11 12 11 11 11 11 11 10 9 9 9 8 8 7 7 8 7 6 5 6 6 7 7 7 7 6 5 6 7 8 5 5 6 4 3 3 2 2 2 3 2 2 3 3 4 4 2 1 3
8 9 10 10 9 8 7 4 2 3 4 5 5 5 4 3 6 7 6 4 5 5 5 7 5 3 6 8 11 12 13 12 12 13 12 10 10 10 11 12 12 11 12 10 10 10 11 11 10 8 8 7 7 6 8 7 6 5 6 6 6 7 7 6 7 7 5 4 4 6 6 4 4 2 3 2 2 2 2 2 2 3 3 3 3 3 4
11 10 9 7 7 8 7 6 7 7 7 7 7 5 6 5 7 7 6 5 6 6 6 8 5 3 7 7 8 10 10 10 11 9 9 9 9 9 9 9 11 11 11 10 8 11 12 11 13 13 8 7 7 6 7 6 6 6 6 7 8 8 6 5 5 3 4 4 4 3 4 4 4 3 2 2 3 2 3 3 2 1 2 3 4 4 4
10 8 8 7 6 8 9 7 6 6 6 6 7 7 7 7 7 7 7 6 8 10 10 11 9 7 10 11 9 8 6 5 7 8 9 10 9 9 9 9 8 9 9 9 9 10 10 9 14 16 9 5 6 6 7 9 5 6 7 9 8 7 7 6 5 4 5 5 5 4 5 4 4 3 2 2 3 3 3 3 3 3 3 2 2 3 4
7 8 8 8 7 8 8 7 7 7 7 9 7 6 8 8 8 8 7 7 6 7 10 11 13 11 8 6 7 10 4 5 8 9 11 12 11 11 9 9 8 7 7 8 10 10 9 12 16 10 6 5 7 8 8 9 10 9 8 9 7 6 7 6 5 4 6 4 4 6 6 5 5 4 4 3 3 4 4 4 3 3 2 1 1 1 1
8 7 7 7 6 7 8 8 8 7 8 9 8 8 7 10 10 8 7 7 7 6 9 11 9 8 9 14 14 10 7 7 8 10 10 10 9 10 8 7 7 6 6 8 10 9 11 13 9 8 6 6 8 8 9 10 11 8 7 6 6 5 6 5 6 5 4 5 7 5 5 5 4 5 3 3 3 3 1 1 1 2 2 2 3 4 2
7 6 6 6 7 7 7 8 8 8 9 8 7 7 8 10 10 9 9 8 7 9 8 10 11 10 11 12 12 11 9 9 10 11 12 11 10 10 9 7 6 6 9 12 9 9 14 18 11 7 7 7 8 8 9 10 10 7 6 6 7 6 6 6 6 6 5 4 4 5 5 5 5 5 5 4 4 3 3 3 3 3 4 2 2 2 3
6 6 5 5 5 5 5 5 7 7 7 7 7 6 7 8 9 10 10 9 8 8 7 9 11 10 11 12 12 10 9 9 11 11 12 12 11 11 10 9 8 8 11 10 9 11 15 12 9 8 8 8 8 9 9 12 9 7 7 7 7 7 7 7 7 7 7 5 6 6 6 5 5 6 5 5 5 4 4 4 4 4 5 3 2 2 1
4 4 4 5 5 5 5 4 3 5 6 6 7 7 5 7 7 5 5 6 7 9 8 7 10 10 9 9 9 9 10 11 12 13 13 13 13 11 10 9 10 10 13 13 13 12 10 11 9 10 10 10 9 13 13 9 8 8 8 7 7 7 6 6 7 7 6 6 7 6 6 5 5 4 5 4 5 4 4 5 5 4 3 2 2 2 2
1 2 2 3 4 5 3 5 7 5 2 5 6 6 6 7 1 3 4 5 6 5 5 5 6 7 8 8 10 11 11 13 14 13 12 10 10 9 9 11 10 12 17 12 12 10 12 10 10 10 13 12 11 14 13 9 9 8 8 9 7 7 7 8 5 7 6 5 6 6 5 5 5 5 5 5 5 5 4 3 3 2 3 2 2 2 2
3 3 3 4 4 4 4 5 7 7 5 5 6 3 8 2 4 6 5 6 7 6 5 4 5 6 9 12 12 12 11 12 13 14 12 11 10 8 10 12 11 13 19 12 11 11 11 11 10 13 17 15 15 15 9 9 10 9 8 7 7 7 8 5 6 6 6 6 6 5 6 5 5 5 5 5 5 4 3 2 3 3 3 2 3 3 3
3 2 3 4 5 5 6 5 6 6 5 4 5 5 6 10 8 9 5 3 4 5 6 5 5 6 8 12 13 12 11 11 13 15 14 14 13 11 13 13 14 13 14 14 11 11 10 10 12 17 15 15 15 17 10 9 10 9 7 7 7 4 5 6 6 7 6 6 6 5 5 5 5 5 5 5 4 4 4 4 4 4 3 3 3 2 2
4 4 5 4 6 6 5 6 4 4 4 7 6 2 5 8 7 4 6 5 6 8 8 7 5 6 12 14 12 9 11 11 12 13 10 11 10 11 13 15 13 12 17 16 10 11 10 13 17 19 17 14 15 13 10 9 8 7 7 8 6 6 6 7 7 7 6 6 6 5 5 5 5 5 4 4 4 4 4 5 3 2 2 2 3 4 3
4 3 4 5 4 5 6 4 5 5 4 4 6 6 3 2 8 8 8 8 7 6 5 6 9 10 7 12 11 10 11 11 11 13 10 9 10 13 14 15 15 18 16 11 10 10 9 12 18 20 18 15 15 10 10 8 8 7 7 6 7 7 7 7 6 7 6 6 5 5 5 5 5 4 4 5 4 4 3 4 3 3 3 3 3 2 2
3 2 3 4 5 5 5 5 4 4 4 3 2 4 5 6 2 2 4 4 5 5 4 4 5 5 6 8 12 10 9 12 15 14 13 12 12 13 12 11 13 18 16 12 13 10 18 20 21 20 19 16 12 10 9 8 7 6 7 7 7 7 7 7 7 7 6 5 6 5 5 5 4 4 4 4 3 3 3 3 4 3 3 3 4 4 4
2 3 2 2 3 4 5 5 4 3 2 3 3 2 1 1 4 3 2 5 4 1 3 5 5 3 4 6 10 10 11 10 10 11 11 12 12 12 11 13 19 19 12 9 9 8 18 21 21 20 20 16 11 10 9 8 8 7 7 8 8 7 7 7 6 6 6 7 7 6 5 6 6 5 4 4 4 4 4 3 4 5 5 5 5 4 4
3 3 3 2 3 4 4 4 4 4 3 2 1 2 3 2 2 1 3 4 3 2 3 1 0 2 1 4 7 10 10 10 10 9 10 12 13 11 12 13 13 15 12 9 10 10 16 23 21 20 15 11 11 10 9 8 8 7 7 8 7 6 6 6 7 5 5 5 7 6 5 5 5 5 4 4 5 4 4 5 4 5 4 3 3 3 2
2 2 2 3 2 2 3 3 4 3 3 3 3 1 3 2 2 4 3 1 3 2 2 1 1 1 3 2 5 8 8 6 7 10 9 11 10 11 13 12 13 12 9 7 10 10 10 10 11 12 13 12 11 10 8 8 7 7 7 7 7 6 7 5 5 6 6 5 5 5 5 5 5 4 4 3 4 5 5 5 5 5 6 5 5 4 4
2 0 0 2 2 2 2 2 2 2 2 1 2 2 1 1 1 2 3 6 3 1 1 2 1 3 3 3 3 7 10 7 6 6 9 10 9 10 11 13 12 11 9 8 10 10 10 10 12 14 14 12 10 9 9 9 6 7 7 6 6 6 6 5 5 5 5 5 5 5 5 5 5 5 6 5 5 4 3 3 2 2 3 4 4 5 5
Wind_Direction
227 246 261 267 277 289 295 278 233 206 204 237 234 212 213 221 225 220 160 172 205 258 237 269 332 90 10 32 19 13 25 103 300 179 150 154 170 161 184 157 143 149 174 168 158 175 182 148 142 134 129 116 115 111 114 120 123 125 119 122 127 125 109 94 86 83 74 79 86 89 73 60 63 61 52 57 69 46 33 25 28 33 30 26 25 16 20
240 233 246 256 268 265 249 237 265 265 235 213 212 229 222 217 244 154 167 170 198 206 185 269 28 49 40 40 23 32 34 139 158 184 170 152 151 168 188 159 149 173 156 145 150 155 146 141 132 135 131 127 125 124 125 121 117 115 121 124 119 108 104 98 96 89 86 86 79 65 65 81 73 65 51 37 44 52 38 42 30 16 10 22 16 20 354
246 240 238 243 246 257 291 286 233 261 254 232 238 254 228 216 253 132 168 161 209 213 207 252 133 184 86 15 55 48 42 353 56 353 229 160 154 167 168 157 167 169 143 145 141 139 142 139 138 136 133 129 127 123 120 119 119 120 117 108 102 108 105 102 89 88 87 77 72 69 61 57 80 67 39 37 38 37 43 36 27 22 38 19 23 12 6
259 241 239 234 239 246 251 259 254 227 254 269 218 214 193 205 212 191 172 171 189 194 191 231 226 119 143 57 5 146 174 151 126 146 270 174 154 151 148 148 146 147 149 146 146 146 141 138 140 138 137 133 127 125 125 124 122 116 109 111 111 104 106 105 103 92 83 86 86 89 82 48 35 42 59 50 47 42 36 27 32 21 35 21 9 12 15
253 260 230 228 228 237 242 236 244 255 246 237 259 269 258 224 217 218 181 190 193 180 188 209 198 158 141 172 226 286 168 161 153 159 209 198 168 156 155 151 150 153 150 150 147 144 141 140 139 139 135 130 126 125 123 117 115 110 110 106 101 102 104 106 101 107 122 99 74 64 56 58 61 61 55 52 47 40 26 23 27 20 13 17 30 25 23
251 251 257 215 215 228 232 233 231 234 244 222 227 238 245 237 191 221 274 120 151 163 175 201 166 183 148 160 212 274 283 166 151 124 152 129 251 170 160 155 153 148 145 143 143 138 135 137 137 130 129 121 117 113 112 107 104 105 108 109 108 106 97 84 87 85 64 69 72 68 72 70 69 58 55 51 49 29 15 14 34 16 25 25 25 34 28
262 262 268 270 229 224 237 235 238 230 224 242 256 248 245 258 269 252 105 89 109 154 165 202 168 141 133 159 165 201 169 195 93 54 34 98 135 229 169 154 150 145 141 135 132 132 130 132 127 117 111 114 111 107 105 106 106 109 107 103 99 93 88 86 78 70 83 87 81 74 68 71 66 57 53 47 47 24 24 25 23 30 26 27 29 34 26
271 263 246 261 255 278 220 212 224 222 231 232 225 219 217 238 288 5 77 89 105 89 161 144 109 125 157 139 142 118 77 104 134 136 89 64 18 287 180 151 140 140 136 133 130 118 116 119 116 122 125 123 118 111 113 111 114 111 108 107 100 95 90 89 87 87 86 84 76 75 74 65 58 50 50 45 29 20 30 34 36 12 17 46 49 45 30
261 254 246 252 295 290 311 312 259 271 282 252 221 257 169 249 221 145 129 150 150 151 179 151 156 143 138 137 100 63 141 161 151 144 135 120 150 242 111 117 130 129 129 130 125 125 128 125 124 127 124 125 121 120 120 117 111 106 102 100 100 97 93 89 87 83 83 83 82 76 68 65 55 51 43 35 42 357 23 50 39 29 42 35 35 45 32
295 269 258 235 235 258 248 351 318 254 298 338 44 48 226 246 254 190 132 136 149 146 185 137 127 151 140 140 104 128 125 118 131 129 134 146 157 129 114 109 112 119 123 130 135 132 129 129 128 125 125 125 121 119 116 115 114 111 108 106 102 99 97 93 88 86 82 81 84 75 66 59 57 59 57 49 34 23 8 46 46 24 22 36 28 34 25
241 251 265 272 277 281 19 18 14 340 187 211 80 177 250 73 6 37 124 124 128 144 161 154 155 183 172 138 136 145 143 152 150 134 135 135 133 130 124 127 130 132 134 130 127 126 127 128 131 130 127 123 119 117 117 116 111 107 103 100 99 99 98 95 92 89 87 88 79 69 61 61 63 62 45 53 46 45 35 45 46 45 18 32 32 30 31
248 243 248 253 351 318 359 11 38 3 9 41 146 217 209 17 240 153 83 111 141 157 164 164 180 197 177 162 157 149 154 144 134 136 135 135 134 136 133 135 140 131 120 122 125 125 125 124 127 125 124 119 116 115 111 105 100 97 97 98 99 98 96 94 93 89 85 80 77 83 86 81 70 68 71 44 55 54 49 41 50 49 37 42 41 34 21
255 294 267 280 138 37 356 5 21 50 7 8 256 207 44 38 24 26 14 5 51 155 151 165 188 211 201 154 154 155 150 139 133 131 133 131 134 134 133 125 122 131 132 128 127 123 120 123 123 119 116 114 109 102 101 99 100 102 104 107 106 102 100 97 92 87 78 77 86 85 85 82 60 62 72 72 49 45 51 49 67 64 55 56 44 41 28
261 253 262 261 41 270 306 282 39 10 279 232 225 35 324 329 63 54 26 343 12 345 167 187 225 173 180 149 131 136 143 137 129 136 136 132 126 118 119 130 139 133 129 127 123 116 114 111 110 112 109 100 96 96 97 100 105 108 110 109 105 103 99 95 95 96 99 101 90 86 90 98 102 88 68 72 69 77 60 43 60 62 57 54 56 44 41
235 244 246 266 269 318 316 356 78 19 295 48 12 6 350 327 57 85 64 24 20 28 36 306 200 179 154 147 143 143 137 142 142 142 140 135 133 132 135 130 119 123 126 124 114 109 106 102 99 99 97 96 97 98 98 101 107 111 112 110 107 103 101 101 106 105 99 98 103 103 93 89 95 70 51 43 45 52 70 75 58 58 47 56 49 35 38
244 213 224 227 34 182 342 352 360 360 22 3 36 30 351 340 334 29 64 70 349 67 59 349 210 144 140 142 140 136 142 142 140 134 132 130 130 133 130 127 128 125 113 104 96 90 88 84 80 78 86 93 96 97 97 100 100 102 103 104 105 106 107 110 108 110 119 118 114 110 87 74 63 62 76 65 31 16 27 66 111 75 65 58 43 35 27
260 295 37 119 147 157 239 171 196 56 358 9 1 58 22 340 337 347 315 160 192 136 112 257 231 157 157 147 144 144 142 135 129 132 132 136 137 132 130 131 122 113 108 103 99 94 88 84 80 76 76 90 93 92 93 99 108 113 112 109 105 108 114 115 111 105 99 102 90 72 86 89 87 84 74 80 70 46 30 17 14 42 75 58 46 39 25
358 302 277 294 246 318 2 327 27 7 346 4 2 22 37 337 329 325 317 299 207 166 171 176 203 176 159 152 149 136 132 130 131 132 131 124 119 122 118 114 116 117 112 105 98 94 92 93 90 86 80 81 87 93 104 112 121 117 113 108 111 118 115 108 107 100 102 92 85 90 89 70 75 64 73 70 71 72 59 38 28 30 42 46 48 46 40
343 257 47 336 317 217 54 48 87 76 37 5 317 93 91 265 333 321 312 306 275 202 184 191 196 159 168 153 139 137 138 137 137 135 123 112 105 101 103 111 121 122 118 112 111 109 104 98 100 101 100 97 98 106 118 127 126 118 111 114 121 123 123 128 129 135 115 102 95 87 81 77 64 66 60 48 43 41 45 44 50 41 41 32 33 47 40
251 294 12 340 330 352 15 264 175 163 31 316 348 17 95 218 248 241 274 303 312 259 205 272 220 185 169 151 142 140 139 136 133 124 119 116 113 112 113 106 91 89 105 114 117 117 117 119 117 119 123 126 133 137 135 129 125 127 126 134 138 135 137 142 141 139 138 134 127 112 81 71 80 83 72 64 60 52 38 25 25 36 41 25 18 17 30
278 271 346 340 320 264 254 275 260 244 229 294 305 35 29 29 344 341 341 323 305 285 297 88 277 221 164 150 145 140 142 136 130 129 122 115 115 113 103 94 92 95 99 99 100 102 103 105 112 120 126 130 131 125 129 132 143 149 135 139 130 131 129 116 106 130 140 107 100 99 91 78 53 38 54 71 80 71 49 42 28 19 9 28 12 359 37
259 284 288 279 269 283 270 242 256 42 352 306 342 42 30 45 28 7 359 339 331 308 220 124 56 312 262 155 148 141 138 139 129 118 116 117 112 105 99 96 96 93 90 95 96 97 99 105 104 106 107 106 114 127 128 142 147 138 140 138 134 132 133 134 132 87 61 68 75 89 101 96 86 73 52 53 46 74 82 55 53 31 25 52 353 339 355
246 262 285 306 296 274 251 282 305 315 303 284 255 133 87 80 79 94 69 350 321 298 286 135 144 197 200 184 137 133 134 123 125 126 124 123 120 118 117 112 109 108 106 103 102 102 102 102 102 104 104 109 108 112 125 131 134 132 139 140 137 131 137 142 118 116 114 104 105 106 104 108 105 102 105 61 36 37 55 93 64 21 6 326 321 341 349
216 213 236 254 257 268 295 264 275 282 320 328 315 220 166 170 153 112 102 122 293 303 297 266 183 203 174 155 150 140 131 132 132 129 127 123 119 117 113 112 115 116 116 114 112 111 112 111 112 112 107 102 105 120 120 130 126 142 146 138 134 133 143 127 135 138 129 122 121 120 126 138 148 146 136 129 116 40 44 19 0 335 321 304 296 290 299
213 200 217 237 258 277 264 227 264 279 282 304 326 333 2 34 120 160 132 122 117 286 299 296 262 201 163 158 146 137 135 134 132 130 125 121 118 116 117 117 117 116 114 113 114 118 121 122 121 116 115 115 118 123 127 134 140 154 154 149 140 139 145 156 159 135 127 138 142 142 146 153 158 171 159 153 146 153 178 220 232 267 291 292 285 278 276
180 166 217 190 255 264 270 237 225 251 290 327 335 332 342 50 49 103 143 154 144 121 322 308 306 282 165 148 134 134 131 129 127 124 121 119 119 120 124 122 121 121 122 125 126 127 127 125 120 119 118 120 119 125 128 136 151 162 149 144 146 142 154 162 152 142 147 152 152 165 171 171 170 186 178 169 159 149 153 158 235 271 255 250 259 278 272
193 198 186 73 322 281 261 264 283 329 322 340 316 322 305 37 78 103 112 95 96 107 97 328 310 322 314 108 120 123 122 119 114 113 114 116 119 120 121 123 127 129 129 127 127 125 119 113 114 116 119 125 132 136 139 157 165 153 140 141 139 141 155 166 178 169 162 155 169 185 186 187 133 106 66 32 98 153 166 169 173 176 164 194 234 227 247
198 208 244 134 220 244 260 282 47 64 316 296 302 313 359 63 117 116 103 91 70 86 112 106 25 329 318 71 117 115 116 117 116 118 118 121 123 124 126 129 130 129 127 123 122 123 122 122 119 119 123 131 140 149 158 164 148 135 137 140 138 146 166 180 178 187 173 161 137 109 88 88 178 152 152 162 140 116 100 63 87 110 135 146 156 205 238
259 245 225 160 188 235 248 257 56 335 248 306 336 306 305 230 145 105 84 81 81 87 84 86 97 20 311 301 155 131 127 124 124 123 123 124 126 129 132 132 129 126 124 126 127 131 130 130 128 129 131 140 157 159 157 148 141 134 138 141 147 151 177 196 193 176 140 117 127 131 151 175 134 155 170 140 127 116 99 86 84 66 29 121 163 177 242
244 240 216 213 201 203 213 280 84 258 298 336 311 311 360 346 32 92 78 81 88 85 90 92 96 149 289 241 167 160 127 123 117 116 117 121 123 124 123 120 119 118 122 127 133 135 137 136 134 134 141 150 157 156 146 145 147 151 150 150 148 165 180 188 187 134 127 161 140 111 148 141 125 156 113 73 71 68 63 55 86 118 117 61 37 39 22
222 224 234 233 232 237 212 155 100 283 294 317 302 283 318 64 65 59 82 97 90 98 114 131 131 138 230 276 213 96 99 108 112 116 119 121 122 123 127 132 132 136 137 137 136 137 133 126 129 135 141 151 160 159 154 151 150 152 149 149 152 148 151 134 132 145 168 142 129 154 161 156 162 153 145 147 146 140 148 147 133 110 76 67 55 50 10
211 243 246 238 244 243 231 170 183 228 250 259 305 349 347 61 91 92 92 104 136 153 163 159 124 145 144 269 131 109 111 110 116 123 127 130 131 135 137 140 136 135 136 134 129 119 116 121 132 132 137 142 154 160 148 146 151 148 148 149 153 147 134 134 151 174 184 145 179 170 178 158 127 108 113 125 129 131 134 126 104 82 84 91 79 45 346
235 238 245 260 266 254 250 217 185 183 236 231 138 78 85 91 99 112 123 147 163 161 165 140 141 144 149 170 136 133 126 122 125 135 139 140 145 148 150 142 140 137 135 135 133 133 135 139 136 137 146 153 156 158 160 155 148 151 156 157 155 152 160 182 193 178 169 177 186 173 138 136 131 150 109 54 112 118 115 127 123 116 105 92 87 1 321
235 243 254 257 264 254 232 233 198 170 203 228 137 143 147 149 121 126 144 163 172 176 150 119 153 153 167 150 144 149 144 145 154 158 157 157 158 155 145 139 138 137 134 135 137 134 134 129 131 145 156 165 162 168 155 150 143 152 155 156 156 162 173 195 215 168 186 206 183 153 118 115 119 127 133 177 138 139 153 139 126 125 113 111 105 200 265
239 241 245 252 242 238 231 179 227 248 194 220 189 155 162 157 134 141 153 169 149 141 122 99 96 122 138 153 166 164 167 165 162 165 167 160 152 147 141 139 137 136 139 144 141 134 130 134 134 148 157 168 173 166 153 162 150 152 158 152 164 169 184 193 186 206 192 167 133 133 115 146 161 164 165 141 96 94 82 65 94 107 116 124 159 207 242
227 233 241 249 269 280 268 233 189 195 220 221 235 173 156 171 138 138 143 137 103 91 109 120 127 127 158 192 205 191 182 174 170 158 139 141 133 126 130 133 136 139 142 140 140 127 130 132 143 150 162 168 176 168 160 158 158 157 159 161 176 185 195 162 204 204 131 128 149 167 130 156 128 145 189 168 148 116 105 103 109 138 177 183 183 202 226
222 230 232 243 246 243 250 257 249 202 200 231 227 195 169 158 144 143 141 134 133 137 144 144 143 177 199 203 226 224 188 159 151 135 140 137 131 126 128 131 140 143 147 141 132 127 126 135 142 155 164 165 158 153 163 165 155 158 170 178 183 169 169 195 193 152 137 159 172 124 108 117 146 161 191 187 151 149 161 163 182 210 222 194 175 194 183
239 228 233 236 239 246 245 247 237 239 226 221 221 210 180 148 140 153 161 152 154 167 157 154 163 181 186 177 234 239 202 154 147 143 146 144 138 133 131 136 146 152 151 143 137 135 136 138 145 158 162 156 150 156 166 171 167 175 187 185 180 171 184 189 152 167 157 175 130 130 152 181 170 176 187 204 160 182 194 193 192 201 158 203 185 254 159
237 240 247 246 244 249 249 247 245 243 242 236 223 206 173 142 148 156 156 170 169 189 163 152 155 173 202 199 205 216 193 170 157 153 148 142 139 133 141 149 153 156 137 136 142 138 133 139 151 159 175 157 151 155 166 177 189 192 195 178 177 184 200 174 178 146 171 159 129 160 167 179 180 178 188 182 177 190 147 31 12 299 206 206 192 186 171
245 250 251 249 251 251 252 253 251 244 239 241 234 213 180 151 150 163 167 177 191 199 190 151 161 183 202 208 198 201 188 174 166 155 146 143 137 134 134 146 163 140 140 144 139 127 141 146 153 172 168 162 156 164 162 189 199 213 200 177 180 181 194 168 157 162 188 125 142 166 184 177 183 187 187 178 167 181 186 182 206 226 259 240 217 160 206
251 251 250 256 259 250 249 259 261 260 255 240 230 229 178 169 155 159 175 185 185 193 203 175 170 186 204 206 199 189 178 169 163 159 151 146 150 152 157 163 167 153 152 154 137 139 146 150 163 170 168 161 158 162 165 192 194 218 191 176 183 184 193 168 183 178 144 179 176 186 190 180 191 189 182 171 180 186 182 182 198 215 239 217 211 173 202
225 232 235 238 241 246 254 253 260 260 263 268 248 241 166 164 167 169 152 175 190 201 206 197 184 184 204 202 194 180 175 170 165 163 165 165 161 161 160 162 163 158 159 140 136 142 149 156 176 169 165 169 165 173 179 181 194 213 185 183 184 193 184 173 200 148 160 186 178 192 184 185 182 190 172 183 182 195 194 197 210 210 236 233 183 166 175
321 306 296 289 281 276 266 261 261 271 282 267 273 263 165 169 168 102 124 192 225 233 222 221 215 212 223 214 195 185 177 176 173 165 167 173 170 173 159 153 155 155 149 141 147 152 158 167 175 172 169 171 174 175 184 184 194 216 202 180 199 187 172 201 171 132 180 187 180 199 175 177 180 189 179 192 195 197 205 202 224 199 221 193 220 196 223
293 284 303 303 304 309 307 276 256 258 269 284 291 20 71 43 268 251 218 207 209 216 226 224 216 228 227 221 199 185 179 177 178 175 167 166 174 172 137 148 151 147 148 151 156 158 163 171 176 166 168 177 167 176 187 188 199 214 226 180 200 201 171 169 135 171 186 186 188 205 166 180 185 194 178 199 204 196 188 192 211 217 209 174 203 189 199
289 283 286 303 312 309 310 307 299 300 300 268 229 261 159 157 219 244 256 230 210 201 199 204 211 224 233 233 216 184 177 172 183 178 172 168 172 165 150 145 146 152 157 158 158 162 169 173 165 155 168 176 169 175 188 196 202 211 196 178 201 183 147 172 183 190 190 188 200 197 163 183 194 199 182 202 204 199 187 197 216 220 178 187 190 215 214
282 297 305 317 314 313 316 313 315 315 312 284 286 242 187 161 173 232 268 245 224 216 206 189 182 229 242 230 224 188 167 180 190 192 188 173 168 148 145 145 158 159 160 160 163 167 173 164 150 154 165 170 169 172 196 204 215 200 184 185 176 176 178 186 199 189 193 190 197 192 181 187 201 200 187 200 200 218 193 170 219 232 178 201 207 205 205
332 331 318 314 314 336 349 338 340 334 325 307 291 306 339 109 156 185 226 241 244 232 224 201 189 187 234 261 228 188 177 183 187 190 178 168 134 132 142 146 149 150 157 167 165 172 164 149 153 158 160 172 176 182 197 210 227 203 182 178 174 190 189 196 193 188 193 195 195 200 183 185 207 212 182 210 198 196 219 162 209 224 204 217 259 188 176
339 341 10 5 334 336 336 340 330 327 355 14 355 315 332 358 34 195 237 261 248 239 227 223 194 171 184 241 264 243 199 185 177 180 182 161 143 137 142 152 156 162 166 163 169 162 141 149 154 157 162 172 180 190 196 216 221 193 175 179 184 194 192 196 188 197 194 192 184 198 195 181 201 225 200 200 206 191 227 180 189 218 251 218 197 214 203
356 358 348 332 348 1 360 357 352 4 18 0 310 251 241 51 358 343 234 234 236 308 298 282 264 228 170 228 240 245 218 205 192 173 166 150 140 146 146 146 151 157 163 168 165 141 148 150 155 159 165 173 184 191 203 214 213 186 177 182 195 193 191 197 191 202 191 191 186 194 196 189 196 217 208 189 208 194 210 213 192 203 210 218 216 206 213
0 335 7 32 34 9 6 1 14 16 13 39 348 252 244 175 126 87 22 25 64 136 183 207 337 34 353 261 251 241 238 201 175 171 145 134 139 138 141 146 154 165 170 170 150 143 151 152 158 161 169 175 188 193 207 214 205 180 182 184 198 190 201 197 183 201 181 192 186 190 198 204 197 207 207 185 198 215 198 205 213 211 230 286 278 285 257
340 326 9 355 37 58 33 14 19 20 17 13 10 331 294 281 77 72 90 256 284 236 249 229 62 118 77 56 297 300 283 235 170 165 138 134 136 136 142 148 155 164 187 163 139 148 153 157 161 167 172 179 188 199 210 215 196 176 186 189 196 194 196 189 183 197 196 201 182 190 196 203 199 200 211 226 203 207 223 217 208 206 183 206 218 231 236
244 112 333 308 38 40 32 45 35 49 13 338 41 27 86 313 275 223 185 196 219 233 96 159 201 283 167 152 204 246 274 262 180 148 129 134 131 136 134 140 154 170 186 158 146 154 160 164 164 173 178 181 189 200 216 219 199 181 185 190 189 201 200 189 192 193 196 206 187 194 194 202 210 201 195 205 218 220 217 243 256 263 251 243 233 220 214